Regional Weather Roundup
Issued by NWS

Home | Current Version | Previous Version | Graphics & Text | Print | Product List | Glossary On
Versions: 1 2 3 4 5 6 7 8 9 10 11 12 13 14 15 16 17 18 19 20 21 22 23 24 25 26 27 28 29 30 31 32 33 34 35 36 37 38 39 40 41 42 43 44 45 46 47 48 49 50
000
ASUS44 KMEG 171900
RWRTN
TENNESSEE HOURLY STATE WEATHER ROUNDUP
NATIONAL WEATHER SERVICE MEMPHIS TN
100 PM CST TUE JAN 17 2017

TNZ002-004-019-021-049-052-054-088>092-172000-
WEST TENNESSEE

CITY           SKY/WX    TMP DP  RH WIND       PRES   REMARKS
MEMPHIS INTL   CLOUDY    56  46  69 W8        30.09S
NWS MEMPHIS      N/A     56 N/A N/A MISG        N/A
JACKSON        CLOUDY    56  48  74 W12       30.06F
DYERSBURG      MOSUNNY   54  45  71 W13       30.06F
UNION CITY     MOSUNNY   54  48  82 W13       30.03F
PARIS          MOSUNNY   52  46  82 SW12      30.04F
$$

TNZ008-025-027-028-033-062-065-066-172000-
NORTH MIDDLE TENNESSEE

CITY           SKY/WX    TMP DP  RH WIND       PRES   REMARKS
NASHVILLE      CLOUDY    62  55  77 SW13      30.01F
CLARKSVILLE    CLOUDY    57  47  69 SW15      30.02S
SMYRNA         LGT RAIN  62  59  90 SW10      30.03F
CROSSVILLE     RAIN      60  58  92 VRB6      30.06S FOG
$$

TNZ061-075-076-078-094-096-097-172000-
SOUTH MIDDLE TENNESSEE

CITY           SKY/WX    TMP DP  RH WIND       PRES   REMARKS
TULLAHOMA      CLOUDY    63  61  94 SW13      30.07S
WINCHESTER     CLOUDY    63  61  94 SW7       30.08S
MCMINNVILLE    CLOUDY    63  63 100 SW10      30.04F
COLUMBIA       PTSUNNY  N/A N/A N/A SW9       30.03F
SHELBYVILLE    CLOUDY    64  64 100 W12       30.06S
$$

TNZ017-018-042-046-047-172000-
NORTHEAST TENNESSEE

CITY           SKY/WX    TMP DP  RH WIND       PRES   REMARKS
TRI CITIES     CLOUDY    57  55  93 CALM      30.07F
$$

TNZ012-013-036-069-073-074-172000-
CENTRAL EAST TENNESSEE

CITY           SKY/WX    TMP DP  RH WIND       PRES   REMARKS
KNOXVILLE      CLOUDY    62  58  86 SW13      30.05F
OAK RIDGE      LGT RAIN  59  57  93 W3        30.06F FOG
GATLINBURG     CLOUDY    61  57  88 CALM      30.05F
$$

TNZ083-085-099-172000-
SOUTHEAST TENNESSEE

CITY           SKY/WX    TMP DP  RH WIND       PRES   REMARKS
CHATTANOOGA    CLOUDY    66  58  75 S9        30.08F
$$

SKY/WX REPORTED AS FAIR MEANS FEW OR NO CLOUDS BELOW
12 THOUSAND FEET.





USA.gov is the U.S. government's official web portal to all federal, state and local government web resources and services.